Weather in Tashbulatovo

Russia / Republic of Bashkortostan     53°37′17″N   58°42′04″E
temp.,
°C
wind,
m/s
gust,
m/s
humid.,
%
clouds,
%
prec.,
mm/h
press.,
hPa
HPBL,
m
19 january, wed
wed1923:00−10sw3691100 0.0 1021113
02:00−10sw349198 0.0 102268
05:00−13sw339382 0.0 102334
08:00−13sw2393100 0.0 102431
11:00−12wsw2292100 0.0 102442
14:00−8sw2391100 0.0 102468
17:00−9sw2293100 0.0 102525
20:00−11wsw2294100 0.0 102615
20 january, thu
thu2023:00−14wsw2295100 0.0 102714
02:00−16w2296100 0.0 102810
05:00−18w2198100 0.0 102810
08:00−17w1197100 0.0 102810
11:00−13sw1194100 0.0 102829
14:00−10s2394100 0.0 1026101
17:00−13s229896 0.0 102726
20:00−20wsw1110063 0.0 10289
21 january, fri
fri2123:00−22wnw1110086 0.0 10289
02:00−22wnw1110099 0.0 10289
05:00−23nw1110048 0.0 10289
08:00−23nw1110065 0.0 10289
11:00−20nnw1110079 0.0 102913
14:00−14ene1192100 0.0 102745
17:00−18n119696 0.0 10289
20:00−21nw219769 0.0 10309
22 january, sat
sat2223:00−21nw2194100 0.0 10309
02:00−19nnw1190100 0.0 103010
05:00−18nnw1189100 0.0 102911
08:00−17n1189100 0.0 102912
11:00−15n1186100 0.0 103034
14:00−12ne1181100 0.0 103085
17:00−14n1191100 0.0 10309
20:00−15nnw1190100 0.0 10319
23 january, sun
sun2323:00−16nw1188100 0.0 103210
02:00−17nw1188100 0.0 10339
05:00−18wnw228772 0.0 10349
08:00−20nw11875 0.0 10359
11:00−16nnw118550 0.0 103613
14:00−11ne128021 0.0 103562
17:00−15nnw22875 0.0 10369
20:00−17nnw228989 0.0 10399